GW2617 Weather Reports


time (UTC)temp
F
wind
direction
speed
knots
gust
knots
rain 1hr
in
rain 24hr
in
rain mn
in
humidity
%
barometer
mb
20260507223425 70 290 6.1 7.0 0.00 0.00 0.00 32 1011.8
20260507222922 70 244 6.1 7.8 0.00 0.00 0.00 32 1011.8
20260507222419 70 240 6.1 7.0 0.00 0.00 0.00 31 1012.1
20260507221916 70 249 7.0 8.7 0.00 0.00 0.00 31 1011.9
20260507221412 70 215 5.2 6.1 0.00 0.00 0.00 32 1012.1
20260507220908 70 277 10.4 12.2 0.00 0.00 0.00 31 1012.1
20260507220407 69 242 8.7 11.3 0.00 0.00 0.00 31 1012.1
20260507215903 69 247 7.0 8.7 0.00 0.00 0.00 31 1012.4
20260507215400 69 223 10.4 13.9 0.00 0.00 0.00 31 1012.4
20260507214857 69 246 7.8 8.7 0.00 0.00 0.00 33 1012.3
20260507214354 68 233 8.7 9.6 0.00 0.00 0.00 32 1012.3
20260507213850 68 235 12.2 14.8 0.00 0.00 0.00 32 1012.5
20260507213347 68 236 4.3 6.1 0.00 0.00 0.00 33 1012.6
20260507212843 68 247 7.8 9.6 0.00 0.00 0.00 33 1012.8
20260507212339 67 212 8.7 11.3 0.00 0.00 0.00 33 1012.9
20260507211836 68 242 7.8 9.6 0.00 0.00 0.00 33 1013.0
20260507211333 68 261 10.4 13.0 0.00 0.00 0.00 33 1012.8
20260507210830 68 219 10.4 11.3 0.00 0.00 0.00 33 1013.0
20260507210327 68 243 8.7 9.6 0.00 0.00 0.00 34 1013.1
20260507205823 68 264 7.0 7.0 0.00 0.00 0.00 34 1013.0
20260507205320 67 254 7.0 7.8 0.00 0.00 0.00 35 1013.0
20260507204816 68 264 7.8 8.7 0.00 0.00 0.00 35 1013.2
20260507204314 68 266 12.2 14.8 0.00 0.00 0.00 34 1013.2
20260507203812 67 246 8.7 11.3 0.00 0.00 0.00 34 1013.1
20260507203309 67 240 6.1 7.8 0.00 0.00 0.00 34 1013.4
20260507202805 67 271 11.3 13.0 0.00 0.00 0.00 33 1013.0
20260507202301 68 263 7.8 8.7 0.00 0.00 0.00 33 1013.4
20260507201756 68 262 6.1 9.6 0.00 0.00 0.00 35 1013.4
20260507201253 68 256 9.6 12.2 0.00 0.00 0.00 34 1013.6
20260507200749 68 260 7.0 7.8 0.00 0.00 0.00 34 1013.4
20260507200245 67 269 12.2 13.0 0.00 0.00 0.00 33 1013.6
20260507195742 67 263 10.4 12.2 0.00 0.00 0.00 34 1013.5
20260507195239 67 262 6.1 7.0 0.00 0.00 0.00 35 1013.8
20260507194737 67 265 12.2 13.9 0.00 0.00 0.00 34 1013.5
20260507194232 67 279 8.7 12.2 0.00 0.00 0.00 36 1013.6
20260507193729 67 279 7.0 7.8 0.00 0.00 0.00 35 1013.8
20260507193226 67 242 14.8 15.6 0.00 0.00 0.00 32 1013.7
20260507192722 66 245 8.7 12.2 0.00 0.00 0.00 37 1014.0
20260507192219 66 213 9.6 13.9 0.00 0.00 0.00 36 1013.9
20260507191714 67 271 11.3 13.0 0.00 0.00 0.00 34 1013.9
20260507191212 66 277 7.8 11.3 0.00 0.00 0.00 35 1014.2
20260507190709 66 298 11.3 13.9 0.00 0.00 0.00 35 1014.0
20260507190207 66 246 6.1 7.8 0.00 0.00 0.00 36 1014.2
20260507185705 66 258 12.2 14.8 0.00 0.00 0.00 36 1014.0
20260507185202 66 230 8.7 9.6 0.00 0.00 0.00 36 1014.2
20260507184659 65 241 7.8 8.7 0.00 0.00 0.00 37 1014.2
20260507184157 66 242 7.8 8.7 0.00 0.00 0.00 36 1014.4
20260507183653 66 216 14.8 15.6 0.00 0.00 0.00 35 1014.3
20260507183150 66 233 7.8 9.6 0.00 0.00 0.00 37 1014.4
20260507182648 66 228 10.4 13.0 0.00 0.00 0.00 37 1014.4
20260507182143 66 256 10.4 13.0 0.00 0.00 0.00 37 1014.4
20260507181640 65 255 5.2 6.1 0.00 0.00 0.00 37 1014.4
20260507181136 65 202 11.3 13.0 0.00 0.00 0.00 37 1014.7
20260507180633 65 251 9.6 9.6 0.00 0.00 0.00 37 1014.8
20260507180130 64 270 9.6 13.0 0.00 0.00 0.00 39 1014.9
20260507175625 64 230 9.6 11.3 0.00 0.00 0.00 39 1014.9
20260507175123 65 268 11.3 13.0 0.00 0.00 0.00 38 1015.0
20260507174620 65 273 7.0 7.8 0.00 0.00 0.00 39 1014.9
20260507174118 64 269 6.1 8.7 0.00 0.00 0.00 40 1015.0
20260507173615 63 215 5.2 6.1 0.00 0.00 0.00 41 1015.3
20260507173112 64 272 12.2 14.8 0.00 0.00 0.00 38 1015.3
20260507172608 63 310 8.7 9.6 0.00 0.00 0.00 43 1015.4
20260507172106 62 304 10.4 13.0 0.00 0.00 0.00 41 1015.4
20260507171600 63 271 15.6 16.5 0.00 0.00 0.00 41 1015.8
20260507171057 63 232 7.8 9.6 0.00 0.00 0.00 43 1015.6
20260507170554 63 234 9.6 9.6 0.00 0.00 0.00 42 1015.7
20260507170051 63 270 9.6 12.2 0.00 0.00 0.00 42 1016.0
20260507165547 62 252 7.8 8.7 0.00 0.00 0.00 44 1016.1
20260507165044 62 293 9.6 13.0 0.00 0.00 0.00 44 1015.9
20260507164540 62 264 9.6 12.2 0.00 0.00 0.00 41 1016.1
20260507164037 62 273 7.0 8.7 0.00 0.00 0.00 43 1016.2
20260507163535 62 274 7.0 8.7 0.00 0.00 0.00 45 1016.2
20260507163033 61 269 9.6 13.9 0.00 0.00 0.00 46 1016.3
20260507162532 62 229 10.4 12.2 0.00 0.00 0.00 45 1016.2
20260507162030 61 212 5.2 5.2 0.00 0.00 0.00 46 1016.1
20260507161526 62 273 8.7 11.3 0.00 0.00 0.00 45 1016.3
20260507161023 61 263 5.2 6.1 0.00 0.00 0.00 47 1016.3
20260507160519 61 224 7.0 8.7 0.00 0.00 0.00 48 1016.3
20260507160015 60 308 7.0 8.7 0.00 0.00 0.00 48 1016.5
20260507155510 60 260 12.2 13.9 0.00 0.00 0.00 47 1016.4
20260507155008 60 237 7.8 8.7 0.00 0.00 0.00 48 1016.5
20260507154504 59 259 7.8 11.3 0.00 0.00 0.00 49 1016.4
20260507154002 59 275 6.1 7.0 0.00 0.00 0.00 52 1016.5
20260507153458 59 263 8.7 8.7 0.00 0.00 0.00 51 1016.5
20260507152955 59 231 6.1 7.0 0.00 0.00 0.00 52 1016.8
20260507152451 59 236 9.6 11.3 0.00 0.00 0.00 49 1016.6
20260507151947 59 278 7.8 13.0 0.00 0.00 0.00 50 1016.7
20260507151444 58 262 4.3 5.2 0.00 0.00 0.00 55 1016.7
20260507150940 57 277 3.5 5.2 0.00 0.00 0.00 55 1016.8
20260507150437 57 251 5.2 6.1 0.00 0.00 0.00 56 1016.6
20260507145934 57 213 7.8 8.7 0.00 0.00 0.00 56 1016.7
20260507145429 57 267 10.4 13.0 0.00 0.00 0.00 54 1016.8
20260507144927 56 299 4.3 5.2 0.00 0.00 0.00 58 1016.8
20260507144424 56 312 11.3 15.6 0.00 0.00 0.00 57 1016.7
20260507143921 55 275 12.2 13.0 0.00 0.00 0.00 58 1016.8
20260507143418 55 274 7.0 8.7 0.00 0.00 0.00 60 1016.8
20260507142914 55 259 7.8 7.8 0.00 0.00 0.00 60 1016.9
20260507142410 55 209 8.7 11.3 0.00 0.00 0.00 60 1016.9
20260507141907 54 281 7.0 8.7 0.00 0.00 0.00 62 1016.7
20260507141404 54 272 10.4 12.2 0.00 0.00 0.00 61 1016.8
20260507140900 53 267 7.0 7.8 0.00 0.00 0.00 63 1016.8
20260507140357 53 229 8.7 8.7 0.00 0.00 0.00 62 1016.9
20260507135855 53 245 6.1 8.7 0.00 0.00 0.00 64 1017.0
20260507135351 52 215 5.2 6.1 0.00 0.00 0.00 64 1017.1
20260507134849 52 251 7.0 7.0 0.00 0.00 0.00 65 1017.1
20260507134345 52 249 7.8 9.6 0.00 0.00 0.00 64 1017.0
20260507133841 52 201 7.8 9.6 0.00 0.00 0.00 65 1017.1
20260507133336 51 231 7.0 7.8 0.00 0.00 0.00 67 1017.2
20260507132836 51 266 7.8 8.7 0.00 0.00 0.00 67 1017.2
20260507132331 50 270 6.1 7.0 0.00 0.00 0.00 68 1017.4
20260507131829 50 266 7.0 7.8 0.00 0.00 0.00 68 1017.3
20260507131325 50 219 7.8 7.8 0.00 0.00 0.00 68 1017.3
20260507130822 49 223 2.6 2.6 0.00 0.00 0.00 69 1017.3
20260507130319 48 220 3.5 3.5 0.00 0.00 0.00 70 1017.2
20260507125818 48 217 3.5 6.1 0.00 0.00 0.00 70 1017.3
20260507125315 47 243 5.2 7.0 0.00 0.00 0.00 71 1017.3
20260507124813 46 225 0.9 0.9 0.00 0.00 0.00 72 1017.2
20260507124309 45 225 0.9 0.9 0.00 0.00 0.00 73 1017.3
20260507123807 44 225 2.6 2.6 0.00 0.00 0.00 73 1017.3
20260507123304 44 198 1.7 1.7 0.00 0.00 0.00 74 1017.4
20260507122800 43 200 1.7 1.7 0.00 0.00 0.00 74 1017.3
20260507122255 42 190 1.7 1.7 0.00 0.00 0.00 75 1017.4
20260507121752 42 196 2.6 3.5 0.00 0.00 0.00 75 1017.2
20260507121248 41 192 1.7 1.7 0.00 0.00 0.00 76 1017.3
20260507120744 41 187 2.6 2.6 0.00 0.00 0.00 76 1017.1
20260507120241 41 191 1.7 2.6 0.00 0.00 0.00 76 1017.1
20260507115737 40 192 0.9 0.9 0.00 0.00 0.00 78 1017.0
20260507115233 40 194 0.9 0.9 0.00 0.00 0.00 78 1017.0
20260507114729 39 196 1.7 1.7 0.00 0.00 0.00 77 1017.1
20260507114226 39 196 0.9 0.9 0.00 0.00 0.00 77 1017.2
20260507113724 38 198 1.7 1.7 0.00 0.00 0.00 78 1017.2
20260507113220 38 198 1.7 1.7 0.00 0.00 0.00 78 1017.2
20260507112718 37 202 0.9 0.9 0.00 0.00 0.00 79 1017.4
20260507112215 37 205 0.9 0.9 0.00 0.00 0.00 79 1017.2
20260507111712 37 211 1.7 1.7 0.00 0.00 0.00 78 1017.1
20260507111209 37 221 1.7 1.7 0.00 0.00 0.00 78 1017.1
20260507110705 38 217 1.7 1.7 0.00 0.00 0.00 77 1017.0
20260507110202 38 217 1.7 0.9 0.00 0.00 0.00 76 1017.0
20260507105659 38 211 2.6 2.6 0.00 0.00 0.00 76 1016.9
20260507105155 38 210 1.7 1.7 0.00 0.00 0.00 76 1017.0
20260507104652 38 211 2.6 1.7 0.00 0.00 0.00 75 1016.9
20260507104148 38 213 1.7 1.7 0.00 0.00 0.00 75 1017.1
20260507103644 38 219 1.7 1.7 0.00 0.00 0.00 74 1017.2
20260507103141 39 222 1.7 1.7 0.00 0.00 0.00 74 1017.3
20260507102638 38 219 1.7 1.7 0.00 0.00 0.00 74 1017.1
20260507102134 38 210 2.6 2.6 0.00 0.00 0.00 74 1017.1
20260507101630 39 212 1.7 1.7 0.00 0.00 0.00 73 1017.4
20260507101126 39 212 1.7 1.7 0.00 0.00 0.00 73 1017.1
20260507100624 38 218 1.7 2.6 0.00 0.00 0.00 73 1017.3
20260507100122 38 205 1.7 1.7 0.00 0.00 0.00 75 1017.4
20260507095619 38 205 0.9 0.9 0.00 0.00 0.00 76 1017.6
20260507095115 37 205 0.9 0.9 0.00 0.00 0.00 76 1017.3
20260507094612 37 205 1.7 1.7 0.00 0.00 0.00 76 1017.4
20260507094109 38 206 0.9 0.9 0.00 0.00 0.00 75 1017.4
20260507093606 38 206 0.9 0.9 0.00 0.00 0.00 74 1017.4
20260507093105 38 206 0.9 0.9 0.00 0.00 0.00 73 1017.6
20260507092601 38 206 0.9 0.9 0.00 0.00 0.00 75 1017.6
20260507092057 38 206 0.9 0.9 0.00 0.00 0.00 74 1017.6
20260507091554 39 212 1.7 1.7 0.00 0.00 0.00 72 1017.7
20260507091050 39 216 0.9 0.9 0.00 0.00 0.00 72 1017.6
20260507090546 39 216 0.0 0.9 0.00 0.00 0.00 72 1017.7
20260507090044 39 217 1.7 1.7 0.00 0.00 0.00 71 1017.6
20260507085541 39 225 1.7 1.7 0.00 0.00 0.00 71 1017.8
20260507085037 39 226 1.7 1.7 0.00 0.00 0.00 72 1017.6
20260507084534 39 213 3.5 3.5 0.00 0.00 0.00 73 1017.8
20260507084031 39 205 2.6 2.6 0.00 0.00 0.00 73 1017.7
20260507083527 39 199 1.7 2.6 0.00 0.00 0.00 72 1017.9
20260507083024 39 209 1.7 1.7 0.00 0.00 0.00 73 1017.8
20260507082520 38 212 1.7 1.7 0.00 0.00 0.00 76 1017.8
20260507082016 38 211 1.7 1.7 0.00 0.00 0.00 77 1018.0
20260507081513 39 193 2.6 2.6 0.00 0.00 0.00 75 1018.0
20260507081010 40 189 3.5 3.5 0.00 0.00 0.00 73 1017.9
20260507080506 40 208 4.3 3.5 0.00 0.00 0.00 71 1018.1
20260507080001 40 216 3.5 3.5 0.00 0.00 0.00 70 1018.2
20260507075458 40 210 3.5 3.5 0.00 0.00 0.00 71 1018.1
20260507074954 39 211 2.6 2.6 0.00 0.00 0.00 73 1017.9
20260507074451 40 199 1.7 1.7 0.00 0.00 0.00 72 1018.1
20260507073950 39 208 1.7 1.7 0.00 0.00 0.00 74 1018.4
20260507073445 39 201 1.7 1.7 0.00 0.00 0.00 74 1018.3
20260507072942 39 215 1.7 1.7 0.00 0.00 0.00 74 1018.1
20260507072440 39 273 1.7 1.7 0.00 0.00 0.00 74 1018.4
20260507071937 39 274 0.9 0.9 0.00 0.00 0.00 75 1018.5
20260507071434 39 322 0.9 0.9 0.00 0.00 0.00 79 1018.5
20260507070930 39 322 0.0 0.0 0.00 0.00 0.00 78 1018.6
20260507070428 38 322 0.0 0.0 0.00 0.00 0.00 79 1018.5
20260507065924 38 322 0.0 0.0 0.00 0.00 0.00 82 1018.8
20260507065421 38 322 0.0 0.0 0.00 0.00 0.00 84 1018.9
20260507064919 37 322 0.0 0.0 0.00 0.00 0.00 82 1018.9
20260507064417 37 322 0.0 0.0 0.00 0.00 0.00 85 1018.9
20260507063914 37 323 0.0 0.0 0.00 0.00 0.00 85 1019.1
20260507063411 37 323 0.0 0.0 0.00 0.00 0.00 85 1018.8
20260507062908 38 323 0.0 0.0 0.00 0.00 0.00 84 1019.1
20260507062405 38 322 0.0 0.0 0.00 0.00 0.00 83 1019.0
20260507061903 38 322 0.0 0.0 0.00 0.00 0.00 86 1019.2
20260507061401 38 322 0.0 0.0 0.00 0.00 0.00 87 1019.1
20260507060859 37 323 0.0 0.0 0.00 0.00 0.00 88 1019.2
20260507060355 37 322 0.0 0.0 0.00 0.00 0.00 87 1019.0
20260507055852 38 323 0.0 0.0 0.00 0.00 0.00 85 1019.3
20260507055353 38 323 0.0 0.0 0.00 0.00 0.00 85 1019.3
20260507054850 38 322 0.0 0.0 0.00 0.00 0.00 87 1019.2
20260507054346 37 322 0.0 0.0 0.00 0.00 0.00 88 1019.4
20260507053843 37 323 0.0 0.0 0.00 0.00 0.00 88 1019.2
20260507053341 37 323 0.0 0.0 0.00 0.00 0.00 87 1019.4
20260507052840 37 322 0.0 0.0 0.00 0.00 0.00 86 1019.4
20260507052336 38 323 0.0 0.0 0.00 0.00 0.00 84 1019.5
20260507051834 39 323 0.0 0.0 0.00 0.00 0.00 83 1019.4
20260507051331 39 323 0.0 0.0 0.00 0.00 0.00 84 1019.4
20260507050828 38 322 0.0 0.0 0.00 0.00 0.00 86 1019.5
20260507050324 38 323 0.0 0.0 0.00 0.00 0.00 86 1019.5
20260507045821 38 323 0.0 0.0 0.00 0.00 0.00 84 1019.3
20260507045318 38 323 0.0 0.0 0.00 0.00 0.00 83 1019.4
20260507044815 39 323 0.0 0.0 0.00 0.00 0.00 82 1019.5
20260507044311 39 323 0.0 0.0 0.00 0.00 0.00 82 1019.3
20260507043807 39 323 0.0 0.0 0.00 0.00 0.00 80 1019.5
20260507043304 40 323 0.0 0.0 0.00 0.00 0.00 79 1019.6
20260507042800 41 323 0.0 0.0 0.00 0.00 0.00 77 1019.6
20260507042256 41 322 0.0 0.0 0.00 0.00 0.00 74 1019.6
20260507041753 42 322 0.0 0.0 0.00 0.00 0.00 74 1019.6
20260507041249 41 322 0.0 0.0 0.00 0.00 0.00 74 1019.6
20260507040747 41 322 0.0 0.0 0.00 0.00 0.00 74 1019.6
20260507040243 41 322 0.0 0.0 0.00 0.00 0.00 76 1019.4
20260507035739 41 323 0.0 0.0 0.00 0.00 0.00 76 1019.4
20260507035234 42 322 0.0 0.0 0.00 0.00 0.00 74 1019.6
20260507034732 42 323 0.0 0.0 0.00 0.00 0.00 72 1019.6
20260507034229 43 322 0.0 0.0 0.00 0.00 0.00 70 1019.6
20260507033727 42 322 0.9 0.9 0.00 0.00 0.00 71 1019.8
20260507033224 42 322 0.9 0.9 0.00 0.00 0.00 72 1019.7
20260507032722 42 322 0.0 0.0 0.00 0.00 0.00 71 1019.7
20260507032218 43 323 0.0 0.0 0.00 0.00 0.00 70 1019.6
20260507031715 43 322 0.0 0.0 0.00 0.00 0.00 66 1019.7
20260507031211 43 322 0.0 0.0 0.00 0.00 0.00 63 1019.7
20260507030708 44 322 0.0 0.0 0.00 0.00 0.00 61 1019.6
20260507030206 45 322 0.0 0.0 0.00 0.00 0.00 58 1019.8
20260507025702 46 322 0.0 0.0 0.00 0.00 0.00 54 1019.5
20260507025159 46 322 0.0 0.0 0.00 0.00 0.00 50 1019.6
20260507024658 46 322 0.9 0.9 0.00 0.00 0.00 52 1019.6
20260507024154 46 322 0.0 0.0 0.00 0.00 0.00 51 1019.5
20260507023650 47 322 0.0 0.0 0.00 0.00 0.00 51 1019.6
20260507023147 48 322 0.9 0.9 0.00 0.00 0.00 47 1019.5
20260507022644 47 322 1.7 1.7 0.00 0.00 0.00 52 1019.6
20260507022140 47 323 0.0 0.0 0.00 0.00 0.00 51 1019.5
20260507021637 48 323 0.0 0.0 0.00 0.00 0.00 48 1019.3
20260507021132 48 323 0.0 0.0 0.00 0.00 0.00 45 1019.3
20260507020631 48 323 0.0 0.0 0.00 0.00 0.00 43 1019.4
20260507020126 49 323 0.0 0.0 0.00 0.00 0.00 42 1019.3
20260507015625 50 324 0.0 0.0 0.00 0.00 0.00 41 1019.2
20260507015122 49 324 0.0 0.0 0.00 0.00 0.00 40 1019.4
20260507014619 50 324 0.0 0.0 0.00 0.00 0.00 41 1019.4
20260507014114 51 324 0.0 0.0 0.00 0.00 0.00 41 1019.3
20260507013611 52 323 0.0 0.0 0.00 0.00 0.00 35 1019.4
20260507013108 53 323 0.9 0.9 0.00 0.00 0.00 35 1019.3
20260507012606 53 323 0.9 0.9 0.00 0.00 0.00 33 1019.1
20260507012101 54 323 0.9 0.9 0.00 0.00 0.00 33 1019.1
20260507011600 54 323 1.7 1.7 0.00 0.00 0.00 32 1019.1
20260507011056 54 311 0.9 0.9 0.00 0.00 0.00 33 1019.0
20260507010555 55 315 1.7 1.7 0.00 0.00 0.00 33 1019.1
20260507010052 55 322 1.7 1.7 0.00 0.00 0.00 32 1019.2
20260507005550 55 324 2.6 2.6 0.00 0.00 0.00 31 1019.3
20260507005045 55 330 1.7 1.7 0.00 0.00 0.00 31 1019.0
20260507004543 55 341 1.7 1.7 0.00 0.00 0.00 32 1019.1
20260507004040 55 354 5.2 6.1 0.00 0.00 0.00 31 1019.3
20260507003536 55 347 5.2 5.2 0.00 0.00 0.00 30 1019.2
20260507003031 56 330 2.6 2.6 0.00 0.00 0.00 32 1019.1
20260507002528 56 332 2.6 2.6 0.00 0.00 0.00 31 1019.1
20260507002024 56 348 3.5 2.6 0.00 0.00 0.00 31 1019.1
20260507001521 56 358 3.5 3.5 0.00 0.00 0.00 31 1019.1
20260507001018 57 11 6.1 7.8 0.00 0.00 0.00 31 1019.2
20260507000514 57 6 4.3 5.2 0.00 0.00 0.00 31 1019.1
20260507000010 57 316 3.5 5.2 0.00 0.00 0.00 30 1019.2
20260506235507 58 2 5.2 5.2 0.00 0.00 0.00 30 1019.3
20260506235003 58 324 4.3 5.2 0.00 0.00 0.00 31 1019.5
20260506234501 58 299 4.3 5.2 0.00 0.00 0.00 29 1019.4
20260506233958 57 334 3.5 3.5 0.00 0.00 0.00 29 1019.3
20260506233454 57 358 5.2 5.2 0.00 0.00 0.00 30 1019.3
20260506232951 57 349 7.0 7.0 0.00 0.00 0.00 30 1019.5
20260506232448 58 359 7.8 7.8 0.00 0.00 0.00 29 1019.4
20260506231943 58 321 5.2 5.2 0.00 0.00 0.00 29 1019.4
20260506231441 57 317 7.0 7.8 0.00 0.00 0.00 29 1019.3
20260506230938 57 305 4.3 5.2 0.00 0.00 0.00 33 1019.5
20260506230434 57 318 11.3 13.0 0.00 0.00 0.00 29 1019.5
20260506225931 58 316 11.3 13.0 0.00 0.00 0.00 28 1019.6
20260506225428 58 316 9.6 9.6 0.00 0.00 0.00 28 1019.6
20260506224925 58 316 10.4 12.2 0.00 0.00 0.00 27 1019.8
20260506224422 59 297 8.7 11.3 0.00 0.00 0.00 29 1019.6
20260506223918 58 315 3.5 3.5 0.00 0.00 0.00 32 1019.5